This is the latest recevied weather packets stored in our database for station/object KC5TXI. If no packets are shown the sender has not sent any weather packets the latest 10 day(s).
| Time | Temp. | Humidity | Pressure | Rain* | Wind** | Luminosity | Snow |
|---|---|---|---|---|---|---|---|
| 1787619893 | 37.78° C | 26% | 1013 hPa | 0 mm | - | 1 W/m² | - |
| 1787619587 | 38.33° C | 26% | 1012.9 hPa | 0 mm | - | 3 W/m² | - |
| 1787619283 | 38.33° C | 25% | 1012.8 hPa | 0 mm | - | 4 W/m² | - |
| 1787618977 | 38.33° C | 25% | 1013 hPa | 0 mm | - | 6 W/m² | - |
| 1787618672 | 38.89° C | 25% | 1012.7 hPa | 0 mm | - | 10 W/m² | - |
| 1787618370 | 38.89° C | 25% | 1012.8 hPa | 0 mm | - | 12 W/m² | - |
| 1787618066 | 38.89° C | 25% | 1012.7 hPa | 0 mm | - | 16 W/m² | - |
| 1787617766 | 38.89° C | 24% | 1012.7 hPa | 0 mm | - | 19 W/m² | - |
| 1787617466 | 38.89° C | 24% | 1012.7 hPa | 0 mm | - | 21 W/m² | - |
| 1787617160 | 39.44° C | 24% | 1012.7 hPa | 0 mm | - | 23 W/m² | - |
| 1787616855 | 39.44° C | 24% | 1012.6 hPa | 0 mm | - | 25 W/m² | - |
| 1787616554 | 39.44° C | 24% | 1012.6 hPa | 0 mm | - | 28 W/m² | - |
| 1787616253 | 40° C | 24% | 1012.7 hPa | 0 mm | - | 29 W/m² | - |
| 1787615952 | 40° C | 23% | 1012.6 hPa | 0 mm | - | 31 W/m² | - |
| 1787615647 | 40° C | 23% | 1012.7 hPa | 0 mm | - | 33 W/m² | - |
| 1787615342 | 40° C | 23% | 1012.7 hPa | 0 mm | - | 35 W/m² | - |
| 1787615038 | 40° C | 22% | 1012.7 hPa | 0 mm | - | 37 W/m² | - |
| 1787614734 | 40.56° C | 22% | 1012.7 hPa | 0 mm | - | 39 W/m² | - |
| 1787614431 | 40.56° C | 22% | 1012.6 hPa | 0 mm | - | 40 W/m² | - |
| 1787614127 | 40.56° C | 22% | 1012.6 hPa | 0 mm | - | 42 W/m² | - |
| 1787613823 | 40.56° C | 23% | 1012.6 hPa | 0 mm | - | 48 W/m² | - |
| 1787613518 | 40.56° C | 22% | 1012.5 hPa | 0 mm | - | 46 W/m² | - |
| 1787613213 | 41.11° C | 22% | 1012.7 hPa | 0 mm | - | 50 W/m² | - |
| 1787612910 | 41.11° C | 22% | 1012.7 hPa | 0 mm | - | 49 W/m² | - |
| 1787612606 | 41.11° C | 22% | 1012.8 hPa | 0 mm | - | 88 W/m² | - |
* Rain latest hour (hover to see other rain measurements)
** Current wind speed in m/s (hover to see current wind gust speed)